Weather History for Fort Sill, OK

Change the Weather History Date:

Monday, April 7, 2014

  Actual Average Record
Temperature  
Mean Temperature 57 °F -  
Max Temperature 68 °F 73 °F 91 °F (2011)
Min Temperature 46 °F 47 °F 26 °F (2009)
Degree Days  
Heating Degree Days 8    
Growing Degree Days 7 (Base 50)    
Moisture  
Dew Point 46 °F    
Average Humidity 78    
Maximum Humidity 100    
Minimum Humidity 34    
Precipitation  
Precipitation 0.00 in - - ()
Sea Level Pressure  
Sea Level Pressure 29.86 in    
Wind  
Wind Speed 5 mph (WNW)    
Max Wind Speed 30 mph    
Max Gust Speed 41 mph    
Visibility 10 miles    
Events Rain , Thunderstorm    
Averages and records for this station are not official NWS values.
T = Trace of Precipitation, MM = Missing Value Source: NWS Daily Summary

Daily Weather History Graph

Daily Weather History Graph

Search for Another Location

Airport:

Trip Planner

Search our weather history database for the weather conditions in past years. The results will help you decide how hot, cold, wet, or windy it might be!

Date:

Astronomy

Apr. 07, 2014 Rise Set
Actual Time 7:12 AM CDT 7:59 PM CDT
Civil Twilight 6:46 AM CDT 8:25 PM CDT
Nautical Twilight 6:16 AM CDT 8:55 PM CDT
Astronomical Twilight 5:45 AM CDT 9:26 PM CDT
Moon 1:15 PM CDT (4/7) 2:31 AM CDT (4/7)
Length of Visible Light 13h 38m
Length of Day
12h 47m
First Quarter, 53% of the Moon is Illuminated
Apr 7
First Quarter
Apr 15
Full
Apr 22
Last Quarter
Apr 29
New
May 6
First Quarter

Hourly Weather History & Observations

Time (CDT) Temp. Dew Point Humidity Pressure Visibility Wind Dir Wind Speed Gust Speed Precip Events Conditions
1:03 AM 48.2 °F 46.4 °F 93% 29.84 in 10.0 mi NW 2.3 mph - N/A   Overcast
1:07 AM 48.2 °F 48.2 °F 100% 29.84 in 10.0 mi NNW 1.2 mph - N/A   Light Drizzle
1:40 AM 48.2 °F 46.4 °F 93% 29.81 in 10.0 mi Calm Calm - N/A   Overcast
1:55 AM 48.2 °F 46.4 °F 93% 29.81 in 10.0 mi NNW 1.2 mph - N/A   Scattered Clouds
2:03 AM 46.4 °F 46.4 °F 100% 29.81 in 10.0 mi NW 2.3 mph - N/A   Partly Cloudy
2:13 AM 46.4 °F 46.4 °F 100% 29.80 in 8.0 mi NW 1.2 mph - N/A   Mostly Cloudy
2:58 AM 47.7 °F 47.7 °F 100% 29.80 in 10.0 mi North 3.5 mph - N/A   Overcast
3:23 AM 48.2 °F 48.2 °F 100% 29.80 in 10.0 mi Calm Calm - N/A   Overcast
3:58 AM 47.3 °F 47.3 °F 100% 29.80 in 8.0 mi South 3.5 mph - N/A   Overcast
4:08 AM 48.2 °F 48.2 °F 100% 29.80 in 7.0 mi SSW 3.5 mph - N/A   Overcast
4:33 AM 48.2 °F 48.2 °F 100% 29.80 in 7.0 mi SW 2.3 mph - N/A   Overcast
4:48 AM 48.2 °F 48.2 °F 100% 29.81 in 6.0 mi WSW 3.5 mph - N/A   Overcast
5:35 AM 48.2 °F 48.2 °F 100% 29.82 in 10.0 mi WSW 2.3 mph - N/A   Overcast
5:45 AM 48.2 °F 48.2 °F 100% 29.83 in 10.0 mi WSW 3.5 mph - N/A   Overcast
5:58 AM 48.0 °F 48.0 °F 100% 29.82 in 10.0 mi SSW 3.5 mph - N/A   Overcast
5:59 AM 48.2 °F 48.2 °F 100% 29.82 in 10.0 mi SSW 3.5 mph - N/A   Overcast
6:39 AM 48.2 °F 48.2 °F 100% 29.85 in 10.0 mi WSW 3.5 mph - N/A   Overcast
6:44 AM 48.2 °F 48.2 °F 100% 29.85 in 10.0 mi West 3.5 mph - N/A   Overcast
6:45 AM 48.2 °F 48.2 °F 100% 29.85 in 10.0 mi WNW 2.3 mph - N/A   Overcast
6:50 AM 48.2 °F 48.2 °F 100% 29.85 in 10.0 mi WNW 2.3 mph - N/A   Overcast
6:51 AM 48.2 °F 48.2 °F 100% 29.85 in 10.0 mi WNW 2.3 mph - N/A   Overcast
6:58 AM 48.2 °F 48.2 °F 100% 29.85 in 10.0 mi WNW 2.3 mph - N/A   Mostly Cloudy
7:08 AM 48.2 °F 48.2 °F 100% 29.86 in 9.0 mi WSW 2.3 mph - N/A   Mostly Cloudy
7:23 AM 48.2 °F 48.2 °F 100% 29.86 in 9.0 mi WSW 2.3 mph - N/A   Scattered Clouds
7:58 AM 48.2 °F 48.2 °F 100% 29.87 in 9.0 mi Calm Calm - N/A   Mostly Cloudy
8:29 AM 50.0 °F 50.0 °F 100% 29.88 in 10.0 mi WSW 4.6 mph - N/A   Overcast
8:39 AM 50.0 °F 50.0 °F 100% 29.89 in 10.0 mi West 3.5 mph - N/A   Overcast
8:58 AM 49.5 °F 48.9 °F 98% 29.88 in 10.0 mi WNW 3.5 mph - N/A   Overcast
9:43 AM 51.8 °F 48.2 °F 88% 29.88 in 10.0 mi West 6.9 mph - N/A   Mostly Cloudy
9:48 AM 51.8 °F 48.2 °F 88% 29.88 in 10.0 mi WNW 6.9 mph - N/A   Scattered Clouds
9:58 AM 53.2 °F 47.5 °F 81% 29.87 in 10.0 mi NW 5.8 mph - N/A   Partly Cloudy
10:58 AM 57.4 °F 47.1 °F 69% 29.88 in 10.0 mi NNW 8.1 mph - N/A   Partly Cloudy
11:58 AM 60.3 °F 47.1 °F 62% 29.88 in 10.0 mi NNW 8.1 mph - N/A   Scattered Clouds
12:58 PM 62.6 °F 43.7 °F 50% 29.88 in 10.0 mi NW 8.1 mph - N/A   Partly Cloudy
1:58 PM 64.4 °F 44.2 °F 48% 29.87 in 10.0 mi Variable 5.8 mph - N/A   Scattered Clouds
2:58 PM 65.8 °F 43.5 °F 44% 29.86 in 10.0 mi WNW 9.2 mph - N/A   Mostly Cloudy
3:43 PM 62.6 °F 44.6 °F 52% 29.87 in 10.0 mi North 21.9 mph 29.9 mph N/A Rain Light Rain
3:46 PM 60.8 °F 46.4 °F 59% 29.87 in 10.0 mi North 23.0 mph 29.9 mph N/A Rain , Thunderstorm Light Thunderstorms and Rain
3:58 PM 57.7 °F 45.9 °F 65% 29.87 in 10.0 mi NW 8.1 mph - 0.00 in Rain , Thunderstorm Light Thunderstorms and Rain
4:02 PM 59.0 °F 44.6 °F 59% 29.87 in 10.0 mi NW 6.9 mph - N/A   Light Drizzle
4:03 PM 59.0 °F 44.6 °F 59% 29.87 in 10.0 mi NW 6.9 mph - N/A Rain , Thunderstorm Light Thunderstorms and Rain
4:11 PM 59.0 °F 44.6 °F 59% 29.87 in 10.0 mi WNW 9.2 mph - N/A Thunderstorm Thunderstorm
4:18 PM 60.8 °F 44.6 °F 55% 29.86 in 10.0 mi NW 9.2 mph - N/A   Mostly Cloudy
4:58 PM 62.1 °F 47.1 °F 58% 29.86 in 10.0 mi West 6.9 mph - 0.00 in   Scattered Clouds
5:58 PM 68.4 °F 39.2 °F 34% 29.85 in 10.0 mi NNW 19.6 mph 27.6 mph N/A   Partly Cloudy
6:15 PM 68.0 °F 41.0 °F 37% 29.87 in 10.0 mi North 13.8 mph 26.5 mph N/A   Clear
6:58 PM 63.3 °F 43.3 °F 48% 29.88 in 10.0 mi North 6.9 mph - N/A   Partly Cloudy
7:07 PM 64.4 °F 37.4 °F 37% 29.90 in 10.0 mi North 29.9 mph 41.4 mph N/A   Light Drizzle
7:24 PM 62.6 °F 39.2 °F 42% 29.91 in 10.0 mi North 13.8 mph 24.2 mph N/A   Mostly Cloudy
7:58 PM 59.4 °F 39.4 °F 48% 29.93 in 10.0 mi North 9.2 mph - 0.00 in   Partly Cloudy
8:58 PM 58.1 °F 37.8 °F 47% 29.96 in 10.0 mi NNW 11.5 mph - N/A   Scattered Clouds
9:58 PM 56.3 °F 38.1 °F 51% 30.00 in 10.0 mi North 15.0 mph - N/A   Clear
10:58 PM 53.8 °F 39.0 °F 57% 30.03 in 10.0 mi NNW 8.1 mph - N/A   Clear
11:58 PM 52.2 °F 38.5 °F 60% 30.03 in 10.0 mi NW 8.1 mph - N/A   Clear